Regional Weather Roundup
Issued by NWS

Home | Current Version | Previous Version | Text Only | Print | Product List | Glossary Off
Versions: 1 2 3 4 5 6 7 8 9 10 11 12 13 14 15 16 17 18 19 20 21 22 23 24 25 26 27 28 29 30 31 32 33 34 35 36 37 38 39 40 41 42 43 44 45 46 47 48 49 50

000
ASUS43 KMKX 060459
RWRWI

WISCONSIN REGIONAL WEATHER ROUNDUP
NATIONAL WEATHER SERVICE MILWAUKEE/SULLIVAN WI
1100 PM CST THU MAR 05 2015

NOTE: "FAIR" INDICATES FEW OR NO CLOUDS BELOW 12,000 FEET WITH NO
SIGNIFICANT WEATHER AND/OR OBSTRUCTIONS TO VISIBILITY.

WIZ001-002-006>008-014>016-023>028-060600-
NORTHWEST WISCONSIN

CITY           SKY/WX    TMP DP  RH WIND       PRES   REMARKS
SUPERIOR ARPT  CLEAR      6  -4  65 SW6       30.26F WCI  -5
ASHLAND        CLEAR      5  -6  60 S9        30.27F WCI  -9
HAYWARD        MOCLDY     2  -7  66 S8        30.27F WCI -12
SIREN          PTCLDY     6  -2  68 S6        30.28F WCI  -5
CUMBERLAND     PTCLDY    -2  -8  78 S7        30.29F WCI -16
RICE LAKE      PTCLDY     1  -6  73 S7        30.34F WCI -12
CHETEK         PTCLDY     4  -4  72 S6        30.34F WCI  -7
LADYSMITH      MOCLDY     1  -6  70 S8        30.33F WCI -13
EAU CLAIRE     NOT AVBL
MENOMONIE      PTCLDY     6  -2  69 S8        30.37F WCI  -7
NEW RICHMOND   PTCLDY     5  -2  74 S9        30.31F WCI  -9
OSCEOLA        PTCLDY     6  -1  74 S7        30.34F WCI  -6
$$

WIZ003>005-009-010-017-018-060600-
NORTH CENTRAL WISCONSIN

CITY           SKY/WX    TMP DP  RH WIND       PRES   REMARKS
MANITOWISH WTR CLEAR      0 -12  57 SW7       30.25S WCI -13
ARBOR VITAE    CLEAR      3  -9  58 SW6       30.26F WCI  -8
WOODRUFF       CLEAR      3  -9  58 SW6       30.26F WCI  -8
RHINELANDER    PTCLDY    -1 -12  59 SW5       30.27F WCI -11
EAGLE RIVER    PTCLDY     0 -13  54 CALM      30.26S
LAND O LAKES   CLEAR      1 -12  53 SW5       30.25S WCI  -8
PHILLIPS       PTCLDY     0  -8  68 S5        30.28F WCI -10
TOMAHAWK       PTCLDY    -2 -12  63 CALM      30.31F
MEDFORD        PTCLDY     1 -10  61 SW6       30.32F WCI -11
MERRILL        PTCLDY    -4 -11  69 CALM      30.34F
$$

WIZ029-030-035-036-043>047-060600-
CENTRAL WISCONSIN

CITY           SKY/WX    TMP DP  RH WIND       PRES   REMARKS
WAUSAU         PTCLDY     2 -10  57 CALM      30.34F
MOSINEE        PTCLDY     0  -9  65 SW3       30.37F
MARSHFIELD     PTCLDY     2  -9  60 SW6       30.36F WCI  -9
STEVENS POINT  PTCLDY     3  -8  59 SW5       30.40S WCI  -6
WAUPACA        PTCLDY     6  -6  55 SW6       30.43S WCI  -4
WAUTOMA        NOT AVBL
WISC RAPIDS    PTCLDY     4  -8  57 SW10      30.41F WCI -11
CAMP DOUGLAS   NOT AVBL
$$

WIZ011>013-019>022-031-037>040-048>050-060600-
NORTHEAST WISCONSIN

CITY           SKY/WX    TMP DP  RH WIND       PRES   REMARKS
ANTIGO         PTCLDY    -3 -11  70 SW5       30.32F WCI -14
SHAWANO        PTCLDY     7  -7  52 SW5       30.41S WCI  -2
OCONTO         MOCLDY     3  -8  57 SW3       30.41F
STURGEON BAY   PTCLDY     7  -9  47 SW8       30.41F WCI  -6
GREEN BAY      MOCLDY     5  -7  57 SW7       30.42F WCI  -7
MANITOWOC      NOT AVBL
APPLETON       CLEAR      7  -8  51 W10       30.42S WCI  -8
CLINTONVILLE   MOCLDY     5  -8  56 W3        30.41S
OSHKOSH        PTCLDY     6  -6  57 SW6       30.43F WCI  -4
$$

WIZ032>034-041-042-053>061-060600-
SOUTHWEST WISCONSIN

CITY           SKY/WX    TMP DP  RH WIND       PRES   REMARKS
LA CROSSE      PTCLDY     5  -4  66 S8        30.45F WCI  -8
SPARTA         PTCLDY     3  -5  70 CALM      30.45F
VIROQUA        PTCLDY     1  -5  75 SW7       30.41F WCI -12
BOSCOBEL       PTCLDY     0  -7  72 SW3       30.50F
PRAIRIE DU CHI MOCLDY    -1  -8  71 CALM      30.51F
PLATTEVILLE    MOCLDY     1  -6  72 S5        30.47F WCI  -8
$$

WIZ056-057-062-063-064-067-068-060600-
SOUTH CENTRAL WISCONSIN

CITY           SKY/WX    TMP DP  RH WIND       PRES   REMARKS
REEDSBURG      MOCLDY     5  -4  64 W8        30.45S WCI  -8
BARABOO/DELLS  MOCLDY     4  -6  62 SW7       30.44S WCI  -8
LONE ROCK      NOT AVBL
MINERAL POINT  MOCLDY     5  -4  66 SW6       30.45S WCI  -6
MADISON        PTCLDY     5  -6  60 SW6       30.46F WCI  -6
MIDDLETON      PTCLDY     7  -6  55 W6        30.46F WCI  -4
WATERTOWN      PTCLDY     3  -6  66 CALM      30.47S
MONROE         MOCLDY     3  -4  72 SW8       30.46F WCI -10
JANESVILLE     PTCLDY     3  -8  60 SW5       30.50F WCI  -6
$$

WIZ051-052-058>065-066-070>072-060600-
SOUTHEAST WISCONSIN

CITY           SKY/WX    TMP DP  RH WIND       PRES   REMARKS
MILWAUKEE      PTCLDY     6  -7  54 W8        30.48F WCI  -7
WAUKESHA       PTCLDY     3  -6  66 SW5       30.48F WCI  -6
MILWAUKEE/TIMM PTCLDY     7  -6  56 SW7       30.49F WCI  -5
RACINE         PTCLDY     4  -7  60 SW6       30.51F WCI  -7
BURLINGTON     PTCLDY    -7 -13  76 CALM      30.49F
KENOSHA        PTCLDY     4  -7  60 SW7       30.49F WCI  -8
FOND DU LAC    PTCLDY     6  -4  63 SW8       30.44F WCI  -7
SHEBOYGAN      MOCLDY     3  -6  66 SW10      30.45F WCI -12
WEST BEND      MOCLDY     7  -6  56 SW6       30.45F WCI  -3
JUNEAU         PTCLDY     2  -5  70 SW7       30.46F WCI -10
$$

LSZ147-162-060600-
LAKE SUPERIOR

STATION/POSITION TIME  TEMP    WIND        PRES    WAVE
                       AIR SEA DIR/SP/G            HT/PER
                 (UTC) (F)     (DEG/KT/KT) (MB)    (FT/S)
DEVILS ISLAND    0400   10     230/ 15/ 17 1026.5F
PORT WING        0440    8     190/ 10/ 13 1024.7F
SAXON HARBOR     0400    8     200/ 10/ 15 1026.1F
$$

LMZ867-665-643>646-060600-
LAKE MICHIGAN

STATION/POSITION TIME  TEMP    WIND        PRES    WAVE
                       AIR SEA DIR/SP/G            HT/PER
                 (UTC) (F)     (DEG/KT/KT) (MB)    (FT/S)
NORTHPORT PIER   0421    9     250/  5/ 15 1029.1S
SISTER BAY       0328    9     240/ 13/ 16   N/A
KEWAUNEE LAKESHO 0400    6      CALM  /  3 1029.5S
SHEBOYGAN LAKESH 0400   11     210/ 13/ 15 1033.6R
PORT WASHINGTON  0440    9     250/  6/ 10 1032.8S
MILWAUKEE LAKESH 0400   11     250/ 12/ 15   N/A
KENOSHA   LAKESH 0400    8     250/  7/ 10 1033.2S
$$

TC  - TEMPERATURE IN CELSIUS
VSB - VISIBILITY IN STATUTE MILES
WCI - WIND CHILL INDEX
HX  - HEAT INDEX




USA.gov is the U.S. government's official web portal to all federal, state and local government web resources and services.